When you browse on this site, cookies collect data to enhance your experience and personalize the content and advertising you see.
Visit our Privacy Policy to learn more. By continuing to use the site, you agree to this use of cookies and data.
  • în România
  • Lista ţărilor
  • Pe 7 zile
  • Temperatura apei
  • Meteo pe hartă
  • Widget-uri
  • user-avatar
    Intrare

    Meteo pe oră la Santa Fe

    Astăzi, 26 Mai, Marţi

    Timp Temperatura Precipitaţii Vânt Presiune Umiditate
    00:00 +10°C° 0 mm 2 m/s 764 mmHg 69%
    01:00 +10°C° 0 mm 2 m/s 763 mmHg 69%
    02:00 +10°C° 0 mm 2 m/s 763 mmHg 70%
    03:00 +10°C° 0 mm 1 m/s 763 mmHg 72%
    04:00 +10°C° 0 mm 1 m/s 763 mmHg 73%
    05:00 +10°C° 0 mm 1 m/s 762 mmHg 75%
    06:00 +9°C° 0 mm 0 m/s 762 mmHg 74%
    07:00 +10°C° 0 mm 0 m/s 763 mmHg 73%
    08:00 +11°C° 0 mm 0 m/s 763 mmHg 69%
    09:00 +14°C° 0 mm 1 m/s 763 mmHg 64%
    10:00 +16°C° 0 mm 1 m/s 763 mmHg 59%
    11:00 +18°C° 0 mm 2 m/s 763 mmHg 54%
    12:00 +18°C° 0 mm 2 m/s 762 mmHg 52%
    13:00 +19°C° 0 mm 2 m/s 761 mmHg 49%
    14:00 +20°C° 0 mm 2 m/s 760 mmHg 47%
    15:00 +19°C° 0 mm 2 m/s 760 mmHg 53%
    16:00 +17°C° 0 mm 2 m/s 760 mmHg 58%
    17:00 +16°C° 0 mm 2 m/s 759 mmHg 64%
    18:00 +15°C° 0 mm 2 m/s 760 mmHg 67%
    19:00 +14°C° 0 mm 2 m/s 760 mmHg 69%
    20:00 +14°C° 0 mm 2 m/s 760 mmHg 72%
    21:00 +13°C° 0 mm 2 m/s 760 mmHg 74%
    22:00 +12°C° 0 mm 3 m/s 760 mmHg 75%
    23:00 +11°C° 0 mm 3 m/s 760 mmHg 77%

    Mâine, 27 Mai, Miercuri

    Timp Temperatura Precipitaţii Vânt Presiune Umiditate
    00:00 +11°C° 0 mm 3 m/s 760 mmHg 78%
    01:00 +11°C° 0 mm 3 m/s 760 mmHg 80%
    02:00 +10°C° 0 mm 3 m/s 760 mmHg 81%
    03:00 +10°C° 0 mm 3 m/s 760 mmHg 82%
    04:00 +10°C° 0 mm 3 m/s 760 mmHg 83%
    05:00 +10°C° 0 mm 3 m/s 759 mmHg 84%
    06:00 +10°C° 0 mm 3 m/s 760 mmHg 82%
    07:00 +11°C° 0 mm 3 m/s 760 mmHg 80%
    08:00 +11°C° 0 mm 3 m/s 760 mmHg 79%
    09:00 +13°C° 0 mm 3 m/s 760 mmHg 72%
    10:00 +15°C° 0 mm 4 m/s 760 mmHg 65%
    11:00 +18°C° 0 mm 4 m/s 760 mmHg 59%
    12:00 +19°C° 0 mm 4 m/s 760 mmHg 57%
    13:00 +20°C° 0 mm 4 m/s 759 mmHg 55%
    14:00 +21°C° 0 mm 4 m/s 759 mmHg 53%
    15:00 +20°C° 0 mm 3 m/s 759 mmHg 59%
    16:00 +19°C° 0 mm 3 m/s 758 mmHg 65%
    17:00 +17°C° 0 mm 3 m/s 758 mmHg 72%
    18:00 +17°C° 0 mm 3 m/s 758 mmHg 75%
    19:00 +16°C° 0 mm 3 m/s 759 mmHg 79%
    20:00 +14°C° 0 mm 3 m/s 759 mmHg 82%
    21:00 +13°C° 0 mm 3 m/s 759 mmHg 85%
    22:00 +13°C° 0 mm 3 m/s 759 mmHg 87%
    23:00 +13°C° 0 mm 3 m/s 759 mmHg 90%

    Poimâine, 28 Mai, Joi

    Timp Temperatura Precipitaţii Vânt Presiune Umiditate
    00:00 +13°C° 0 mm 2 m/s 759 mmHg 91%
    01:00 +13°C° 0 mm 2 m/s 759 mmHg 92%
    02:00 +13°C° 0 mm 2 m/s 758 mmHg 93%
    03:00 +13°C° 0 mm 2 m/s 758 mmHg 93%
    04:00 +12°C° 0 mm 2 m/s 758 mmHg 93%
    05:00 +11°C° 0 mm 3 m/s 758 mmHg 93%
    06:00 +12°C° 0 mm 3 m/s 758 mmHg 91%
    07:00 +12°C° 0 mm 3 m/s 758 mmHg 89%
    08:00 +12°C° 0 mm 4 m/s 758 mmHg 86%
    09:00 +14°C° 0 mm 4 m/s 758 mmHg 79%
    10:00 +17°C° 0 mm 4 m/s 758 mmHg 72%
    11:00 +19°C° 0 mm 4 m/s 758 mmHg 65%
    12:00 +20°C° 0 mm 4 m/s 757 mmHg 62%
    13:00 +21°C° 0 mm 4 m/s 757 mmHg 59%
    14:00 +22°C° 0 mm 4 m/s 756 mmHg 57%
    15:00 +21°C° 0 mm 3 m/s 756 mmHg 62%
    16:00 +20°C° 0 mm 3 m/s 755 mmHg 68%
    17:00 +19°C° 0 mm 3 m/s 755 mmHg 74%
    18:00 +18°C° 0 mm 3 m/s 755 mmHg 77%
    19:00 +17°C° 0 mm 3 m/s 755 mmHg 80%
    20:00 +16°C° 0 mm 3 m/s 755 mmHg 84%
    21:00 +16°C° 0 mm 3 m/s 755 mmHg 86%
    22:00 +15°C° 0 mm 2 m/s 756 mmHg 87%
    23:00 +15°C° 0 mm 2 m/s 756 mmHg 89%

    29 Mai, Vineri

    Timp Temperatura Precipitaţii Vânt Presiune Umiditate
    00:00 +15°C° 0 mm 2 m/s 756 mmHg 90%
    01:00 +14°C° 0 mm 2 m/s 756 mmHg 91%
    02:00 +13°C° 0 mm 3 m/s 756 mmHg 92%
    03:00 +14°C° 0 mm 2 m/s 756 mmHg 92%
    04:00 +14°C° 0 mm 2 m/s 755 mmHg 92%
    05:00 +14°C° 0 mm 2 m/s 755 mmHg 92%
    06:00 +14°C° 0 mm 2 m/s 756 mmHg 90%
    07:00 +14°C° 0 mm 2 m/s 756 mmHg 88%
    08:00 +15°C° 0 mm 2 m/s 757 mmHg 86%
    09:00 +17°C° 0 mm 2 m/s 757 mmHg 78%
    10:00 +19°C° 0 mm 3 m/s 757 mmHg 71%
    11:00 +21°C° 0 mm 3 m/s 757 mmHg 63%
    12:00 +22°C° 0 mm 3 m/s 756 mmHg 60%
    13:00 +23°C° 0 mm 2 m/s 756 mmHg 57%
    14:00 +24°C° 0 mm 2 m/s 755 mmHg 54%
    15:00 +23°C° 0 mm 2 m/s 756 mmHg 58%
    16:00 +21°C° 0 mm 2 m/s 756 mmHg 63%
    17:00 +20°C° 0 mm 2 m/s 756 mmHg 68%
    18:00 +19°C° 0 mm 2 m/s 757 mmHg 70%
    19:00 +18°C° 0 mm 3 m/s 757 mmHg 73%
    20:00 +17°C° 0 mm 4 m/s 758 mmHg 75%
    21:00 +15°C° 0 mm 5 m/s 759 mmHg 67%
    22:00 +15°C° 0 mm 5 m/s 760 mmHg 59%
    23:00 +15°C° 0 mm 6 m/s 760 mmHg 50%

    30 Mai, Sâmbătă

    Timp Temperatura Precipitaţii Vânt Presiune Umiditate
    00:00 +14°C° 0 mm 6 m/s 761 mmHg 45%
    01:00 +14°C° 0 mm 6 m/s 761 mmHg 39%
    02:00 +13°C° 0 mm 6 m/s 762 mmHg 33%
    03:00 +13°C° 0 mm 6 m/s 762 mmHg 38%
    04:00 +11°C° 0 mm 6 m/s 762 mmHg 43%
    05:00 +10°C° 0 mm 6 m/s 762 mmHg 48%
    06:00 +10°C° 0 mm 6 m/s 763 mmHg 51%
    07:00 +10°C° 0 mm 6 m/s 764 mmHg 53%
    08:00 +9°C° 0 mm 6 m/s 764 mmHg 56%
    09:00 +10°C° 0 mm 6 m/s 765 mmHg 57%
    10:00 +10°C° 0 mm 6 m/s 765 mmHg 59%
    11:00 +11°C° 0 mm 6 m/s 765 mmHg 61%
    12:00 +11°C° 0 mm 7 m/s 765 mmHg 57%
    13:00 +12°C° 0 mm 7 m/s 765 mmHg 53%
    14:00 +14°C° 0 mm 7 m/s 764 mmHg 49%
    15:00 +13°C° 0 mm 6 m/s 764 mmHg 52%
    16:00 +12°C° 0 mm 5 m/s 765 mmHg 54%
    17:00 +11°C° 0 mm 4 m/s 765 mmHg 57%
    18:00 +11°C° 0 mm 4 m/s 765 mmHg 56%
    19:00 +11°C° 0 mm 4 m/s 765 mmHg 56%
    20:00 +10°C° 0 mm 4 m/s 766 mmHg 55%
    21:00 +10°C° 0 mm 4 m/s 766 mmHg 56%
    22:00 +10°C° 0 mm 4 m/s 767 mmHg 56%
    23:00 +10°C° 0 mm 4 m/s 767 mmHg 56%

    31 Mai, Duminică

    Timp Temperatura Precipitaţii Vânt Presiune Umiditate
    00:00 +8°C° 0 mm 4 m/s 767 mmHg 57%
    01:00 +9°C° 0 mm 3 m/s 767 mmHg 59%
    02:00 +8°C° 0 mm 3 m/s 767 mmHg 61%
    03:00 +8°C° 0 mm 3 m/s 767 mmHg 64%
    04:00 +7°C° 0 mm 2 m/s 767 mmHg 66%
    05:00 +6°C° 0 mm 2 m/s 767 mmHg 69%
    06:00 +6°C° 0 mm 2 m/s 768 mmHg 70%
    07:00 +5°C° 0 mm 3 m/s 768 mmHg 70%
    08:00 +5°C° 0 mm 3 m/s 768 mmHg 71%
    09:00 +8°C° 0 mm 3 m/s 769 mmHg 63%
    10:00 +9°C° 0 mm 3 m/s 769 mmHg 56%
    11:00 +11°C° 0 mm 3 m/s 769 mmHg 48%
    12:00 +12°C° 0 mm 3 m/s 768 mmHg 45%
    13:00 +13°C° 0 mm 3 m/s 768 mmHg 42%
    14:00 +13°C° 0 mm 3 m/s 767 mmHg 39%
    15:00 +13°C° 0 mm 2 m/s 767 mmHg 43%
    16:00 +12°C° 0 mm 2 m/s 767 mmHg 47%
    17:00 +10°C° 0 mm 1 m/s 767 mmHg 51%
    18:00 +10°C° 0 mm 1 m/s 767 mmHg 52%
    19:00 +8°C° 0 mm 0 m/s 767 mmHg 54%
    20:00 +7°C° 0 mm 0 m/s 767 mmHg 55%
    21:00 +7°C° 0 mm 0 m/s 767 mmHg 56%
    22:00 +6°C° 0 mm 0 m/s 767 mmHg 57%
    23:00 +6°C° 0 mm 0 m/s 767 mmHg 58%
    Arată mai mult